Lobo

Go HERE for most recent data if this page is not up to date.

Jump to table bottom
Date/Time Temp deg F RH % 24 Hr Snow (in) Snow Depth (in) H2O (in)
10/19 02:00 18.6 71 "NAN" 7.1 0.00
10/19 01:00 19.3 72 "NAN" 7.1 0.00
10/19 00:00 19.7 69 "NAN" 7.1 0.00
10/18 23:00 20.6 66 "NAN" 7.1 0.00
10/18 22:00 21.6 69 "NAN" 7.1 0.00
10/18 21:00 22.4 73 "NAN" 7.0 0.00
10/18 20:00 22.5 71 "NAN" 7.4 0.00
10/18 19:00 23.1 69 "NAN" 7.3 0.00
10/18 18:00 23.3 63 "NAN" 7.4 0.00
10/18 17:00 24.2 66 "NAN" 7.1 0.00
10/18 16:00 24.1 73 "NAN" 7.0 0.00
10/18 15:00 23.3 80 "NAN" 6.6 0.05
10/18 14:00 23.6 89 "NAN" 6.4 0.10
10/18 13:00 24.9 82 "NAN" 4.5 0.03
10/18 12:00 25.9 63 "NAN" 5.7 0.00
10/18 11:00 25.0 62 "NAN" 5.8 0.00
10/18 10:00 23.9 67 "NAN" 5.9 0.00
10/18 09:00 22.9 68 "NAN" 6.2 0.00
10/18 08:00 21.6 69 "NAN" 6.3 0.00
10/18 07:00 19.9 75 "NAN" 6.2 0.00
10/18 06:00 21.5 72 "NAN" 6.1 0.00
10/18 05:00 22.0 75 "NAN" 6.0 0.00
10/18 04:00 22.6 67 "NAN" 6.1 0.00
10/18 03:00 22.0 70 "NAN" 6.2 0.00
10/18 02:00 22.4 64 "NAN" 6.0 0.00
10/18 01:00 22.7 84 "NAN" 5.8 0.00
10/18 00:00 24.4 82 "NAN" 5.7 0.00
.